Location: Bishopstone
(51.0167°N, 1.9000°W)
Time: 02:27:43
(UTC+00:00)

Cosmos 2219 Rocket - Pass Details

Date: 16 September 2019
Orbit: 829 x 845 km, 71.0° (Epoch: 16 October)

Event Time Altitude Azimuth Distance (km) Brightness Sun altitude
Rises 19:05:19 0° 330° (NNW) 3,384 6.1 -7.8°
Reaches altitude 10° 19:07:46 10° 332° (NNW) 2,447 5.3 -8.2°
Maximum altitude 19:13:23 77° 59° (ENE) 857 2.2 -9.0°
Drops below altitude 10° 19:18:58 10° 146° (SE) 2,437 4.1 -9.9°
Enters shadow 19:20:15 - 147° (SSE) 2,923 4.5 -10.1°
